Weather in Livno

Bosnia and Herzegovina     43°49′26″N   17°00′37″E
temp.,
°C
wind,
m/s
gust,
m/s
humid.,
%
clouds,
%
prec.,
mm/h
press.,
hPa
HPBL,
m
6 may, thu
thu623:00+8sse118998 0.2 101437
02:00+7ese22865 0.2 101429
05:00+6e2283100 0.0 101424
08:00+10sse237310 0.0 1014289
11:00+13ssw46675 0.4 10141110
14:00+15ssw46625 1.0 10131330
17:00+14s57635 0.2 10131153
20:00+9s229321 0.2 101438
7 may, fri
fri723:00+7se229475 0.0 101538
02:00+7se228274 0.0 101420
05:00+7se339456 0.0 101353
08:00+11sse358214 0.0 1013454
11:00+14s566720 0.0 10121114
14:00+15ssw586282 0.1 10111241
17:00+15ssw355983 0.0 1011896
20:00+11s1176100 0.0 101218
8 may, sat
sat823:00+10ne1188100 0.5 101325
02:00+5ne5694100 4.0 1018385
05:00+2nne5996100 3.3 1021603
08:00+3ne568850 5.4 1021400
11:00+8ne45695 0.0 1020588
14:00+11nne346299 0.0 1018866
17:00+12ne346077 0.0 10181003
20:00+8ne327712 0.0 102021
9 may, sun
sun923:00+5ne327952 0.0 102231
02:00+4ne32785 0.0 102328
05:00+4ne326814 0.0 102222
08:00+10ne22535 0.0 1020108
11:00+17s22345 0.0 1019717
14:00+18ssw23360 0.0 10191163
17:00+18ssw23420 0.0 10191111
20:00+11s11700 0.0 102010
10 may, mon
mon1023:00+9e22700 0.0 102111
02:00+8e22540 0.0 102111
05:00+8e22505 0.0 102112
08:00+13ese11525 0.0 1020111
11:00+17ssw22480 0.0 1019796
14:00+19sw32510 0.0 10181172
17:00+18sw22540 0.0 1018992
20:00+13se11760 0.0 101810